[[{"header":{"parameterUnit":"m.s-1","parameterCategory":1,"la1":30.2991,"la2":30.254,"lo1":-89.0895,"lo2":-89.0444,"dy":0.0017,"dx":0.0017,"nx":28,"ny":28,"refTime":"2025-02-11T03:00:00:Z","depth":0,"parameterNumber":2,"parameterNumberName":"U-component_of_WINDS"},"data":[0,0,0,0,0,0,0,0,0,0,0,0,0,0,0,0,0,0,0,0,0,0,0,0,0,0,0,0,0,0,0,0,0,0,0,0,0,0,0,0,0,0,0,0,0,0,0,0,0,0,0,0,0,0,0,0,0,0,-0.3274,-0.3274,0,-0.3344,-0.3345,-0.3346,-0.3383,-0.3383,-0.3383,-0.3383,-0.3453,-0.3454,-0.3456,0,0,0,0,0,0,0,0,0,0,0,0,0,-0.3168,-0.317,-0.3273,-0.3274,-0.3275,-0.3344,-0.3345,-0.3346,-0.3383,-0.3383,-0.3383,-0.3383,-0.3452,-0.3454,-0.3456,0,0,0,0,0,0,0,0,0,0,0,0,0,-0.3224,-0.317,-0.3273,-0.3302,-0.3305,-0.3344,-0.3345,-0.3346,-0.3383,-0.3383,-0.3383,-0.3383,-0.3451,-0.3454,-0.3457,-0.3471,0,0,-0.3465,-0.3466,0,0,0,0,0,0,0,0,-0.322,-0.3227,-0.3297,-0.33,-0.3304,-0.3355,-0.3333,-0.3388,-0.3383,-0.3353,-0.3383,-0.3383,-0.342,-0.3425,-0.3438,-0.3474,-0.3477,-0.3465,-0.3467,-0.3468,-0.3469,0,0,0,0,0,0,0,-0.3217,-0.3225,-0.3301,-0.3298,-0.3302,-0.331,-0.3318,-0.3344,-0.3385,-0.3356,-0.3359,-0.3367,-0.3422,-0.3435,-0.344,-0.3478,-0.3465,-0.3467,-0.3469,-0.347,-0.3529,-0.3529,0,0,0,0,0,0,-0.3208,-0.3221,-0.3299,-0.3303,-0.3262,-0.3312,-0.3321,-0.3338,-0.3385,-0.3392,-0.3367,-0.3368,-0.3431,-0.3437,-0.3442,-0.3462,-0.3468,-0.347,-0.3472,-0.3529,-0.3529,-0.3529,0,0,0,0,0,0,-0.3206,-0.3215,-0.3296,-0.3263,-0.3274,-0.3314,-0.3333,-0.334,-0.3353,-0.3393,-0.34,-0.3373,-0.3431,-0.3439,-0.3464,-0.3465,-0.3472,-0.3474,-0.3529,-0.3529,-0.3529,-0.3502,0,0,0,0,0,0,-0.3203,-0.3214,-0.3221,-0.3263,-0.3276,-0.3317,-0.3333,-0.3341,-0.3358,-0.3361,-0.3401,-0.3408,-0.3432,-0.346,-0.3466,-0.3469,-0.3476,-0.3529,-0.3529,-0.3529,-0.3503,-0.3501,-0.3499,0,0,0,0,0,-0.3199,-0.321,-0.3221,-0.323,-0.3285,-0.3317,-0.3324,-0.3353,-0.3358,-0.3365,-0.339,-0.3406,-0.3464,-0.3462,-0.347,-0.3473,-0.3529,-0.3529,-0.3529,-0.3504,-0.3501,-0.3499,0,0,0,0,0,0,-0.3166,-0.3216,-0.3229,-0.3254,-0.3281,-0.3323,-0.3333,-0.3349,-0.3375,-0.3376,-0.3409,-0.3418,-0.344,-0.3459,-0.3456,-0.3489,-0.3498,-0.35,-0.3476,-0.3474,-0.3472,-0.3467,-0.3478,0,0,0,0,0,-0.3161,-0.3184,-0.3226,-0.3244,-0.3257,-0.3292,-0.3308,-0.3327,-0.3356,-0.3368,-0.3395,-0.3422,-0.3446,-0.3461,-0.3485,-0.3506,-0.3514,-0.3512,-0.351,-0.3508,-0.3509,-0.3521,-0.352,-0.3529,-0.3529,-0.3529,0,0,-0.3153,-0.3183,-0.3195,-0.3238,-0.3262,-0.3284,-0.3302,-0.3325,-0.3341,-0.3371,-0.3396,-0.3417,-0.3449,-0.3472,-0.3483,-0.3488,-0.3509,-0.3508,-0.3507,-0.3508,-0.352,-0.3519,-0.3519,-0.3529,-0.3529,-0.3529,0,0,-0.3148,-0.3173,-0.3191,-0.3214,-0.3249,-0.3272,-0.3276,-0.3316,-0.3332,-0.3358,-0.338,-0.34,-0.3441,-0.3463,-0.3479,-0.3481,-0.3497,-0.3488,-0.3479,-0.3489,-0.3489,-0.3488,-0.3489,-0.3488,-0.3489,-0.3489,-0.3489,0,-0.3132,-0.3167,-0.3197,-0.3219,-0.3237,-0.3265,-0.3283,-0.3303,-0.3344,-0.3356,-0.3361,-0.3413,-0.3437,-0.3465,-0.3465,-0.3478,-0.3483,-0.3484,-0.3487,-0.3486,-0.3486,-0.3487,-0.3487,-0.3488,-0.3488,-0.3488,-0.3488,0,-0.3146,-0.3169,-0.3179,-0.3219,-0.3238,-0.3257,-0.3289,-0.3305,-0.3322,-0.3344,-0.337,-0.3399,-0.343,-0.3438,-0.3455,-0.3467,-0.347,-0.348,-0.349,-0.3484,-0.3485,-0.3485,-0.3486,-0.3486,-0.3487,-0.3487,0,0,-0.3122,-0.3178,-0.3181,-0.32,-0.324,-0.3259,-0.3278,-0.3309,-0.3321,-0.3348,-0.3365,-0.3399,-0.3409,-0.3428,-0.3447,-0.3457,-0.3456,-0.3466,-0.3468,-0.3463,-0.3471,-0.3462,-0.3462,-0.3467,-0.3467,-0.3467,-0.3468,0,-0.3123,-0.3161,-0.3189,-0.3216,-0.3238,-0.3265,-0.3282,-0.3308,-0.3329,-0.335,-0.3372,-0.3396,-0.3408,-0.3419,-0.3429,-0.3454,-0.3458,-0.3454,-0.3482,-0.3482,-0.3473,-0.3463,-0.3454,-0.3454,-0.3469,-0.3469,-0.3469,0,-0.3129,-0.3156,-0.3185,-0.3223,-0.3233,-0.3249,-0.3278,-0.3298,-0.3328,-0.3342,-0.3363,-0.3383,-0.3404,-0.3411,-0.344,-0.3437,-0.345,-0.3463,-0.3464,-0.3467,-0.3475,-0.3466,-0.3455,-0.3454,-0.347,-0.347,-0.347,0,-0.3109,-0.3152,-0.3175,-0.319,-0.3235,-0.3245,-0.3264,-0.3294,-0.331,-0.3336,-0.3346,-0.3374,-0.3389,-0.3409,-0.3435,-0.3438,-0.3461,-0.3471,-0.3473,-0.3472,-0.3476,-0.3475,-0.3466,-0.3485,-0.3485,-0.3485,-0.3485,0,-0.3107,-0.3123,-0.3167,-0.3181,-0.32,-0.3231,-0.3249,-0.327,-0.3296,-0.3314,-0.3339,-0.3355,-0.3389,-0.3408,-0.3429,-0.3449,-0.3456,-0.3467,-0.3472,-0.3465,-0.3463,-0.3474,-0.3474,-0.3485,-0.3485,-0.3485,-0.3485,0,-0.3087,-0.3117,-0.3144,-0.3184,-0.3194,-0.3207,-0.3241,-0.3255,-0.3277,-0.3299,-0.3306,-0.334,-0.3365,-0.3393,-0.3427,-0.3441,-0.3459,-0.3467,-0.3449,-0.3452,-0.3452,-0.3452,-0.3449,-0.345,-0.3468,-0.3468,-0.3467,0,-0.3084,-0.3098,-0.3139,-0.3153,-0.3172,-0.3194,-0.3211,-0.3241,-0.3258,-0.3292,-0.3302,-0.3329,-0.3352,-0.3389,-0.3416,-0.3442,-0.345,-0.3448,-0.3454,-0.3446,-0.345,-0.3448,-0.345,-0.3446,-0.3445,-0.3445,-0.3445,0,-0.3075,-0.3088,-0.3112,-0.3141,-0.3161,-0.3185,-0.3209,-0.3219,-0.3254,-0.3271,-0.3297,-0.3315,-0.3349,-0.3375,-0.3404,-0.3422,-0.3439,-0.3443,-0.3444,-0.3437,-0.3426,-0.3431,-0.3444,-0.3443,-0.3443,-0.3443,-0.3443,-0.3443,-0.3063,-0.3076,-0.3107,-0.3133,-0.3155,-0.3177,-0.3192,-0.3216,-0.3239,-0.327,-0.3286,-0.3311,-0.3339,-0.338,-0.3398,-0.3417,-0.3423,-0.3425,-0.3426,-0.3426,-0.3424,-0.3423,-0.3422,-0.3422,-0.3423,-0.3423,-0.3423,0,-0.3055,-0.3076,-0.3099,-0.3133,-0.3153,-0.3168,-0.3196,-0.3211,-0.3233,-0.3259,-0.3281,-0.331,-0.3334,-0.3363,-0.339,-0.34,-0.3408,-0.3405,-0.3405,-0.3408,-0.3417,-0.3413,-0.3398,-0.3398,-0.3398,-0.3398,-0.3398,-0.3398,-0.3053,-0.3075,-0.3093,-0.3126,-0.3147,-0.3173,-0.3187,-0.3207,-0.3228,-0.3259,-0.328,-0.33,-0.3326,-0.3354,-0.3377,-0.3385,-0.3393,-0.3388,-0.3398,-0.3406,-0.3408,-0.341,-0.3406,-0.339,-0.339,-0.3388,-0.3388,-0.3388]},{"header":{"parameterUnit":"m.s-1","parameterCategory":1,"la1":30.2991,"la2":30.254,"lo1":-89.0895,"lo2":-89.0444,"dy":0.0017,"dx":0.0017,"nx":28,"ny":28,"refTime":"2025-02-11T03:00:00:Z","depth":0,"parameterNumber":3,"parameterNumberName":"V-component_of_WINDS"},"data":[0,0,0,0,0,0,0,0,0,0,0,0,0,0,0,0,0,0,0,0,0,0,0,0,0,0,0,0,0,0,0,0,0,0,0,0,0,0,0,0,0,0,0,0,0,0,0,0,0,0,0,0,0,0,0,0,0,0,6.7776,6.7777,0,6.7811,6.7811,6.7811,6.7803,6.7803,6.7802,6.7801,6.7834,6.7835,6.7836,0,0,0,0,0,0,0,0,0,0,0,0,0,6.7704,6.7705,6.7776,6.7777,6.7777,6.781,6.7811,6.7811,6.7803,6.7803,6.7802,6.7801,6.7833,6.7835,6.7837,0,0,0,0,0,0,0,0,0,0,0,0,0,6.7736,6.7705,6.7776,6.7777,6.7778,6.781,6.7811,6.7812,6.7804,6.7803,6.7802,6.7801,6.7833,6.7835,6.7837,6.787,0,0,6.7843,6.7844,0,0,0,0,0,0,0,0,6.7734,6.7739,6.7777,6.7777,6.7778,6.7802,6.7797,6.7831,6.7804,6.7794,6.7801,6.78,6.7824,6.7826,6.7835,6.7871,6.7872,6.7844,6.7845,6.7846,6.7847,0,0,0,0,0,0,0,6.7732,6.7737,6.779,6.7777,6.7778,6.7776,6.7779,6.7803,6.7813,6.7795,6.7794,6.7798,6.7824,6.7833,6.7836,6.7873,6.7844,6.7846,6.7847,6.7848,6.7941,6.7942,0,0,0,0,0,0,6.773,6.7735,6.7789,6.7791,6.7753,6.7778,6.7782,6.7795,6.7813,6.7815,6.7799,6.7798,6.783,6.7833,6.7837,6.7878,6.7846,6.7848,6.7849,6.794,6.7941,6.7943,0,0,0,0,0,0,6.7728,6.7734,6.7787,6.7763,6.777,6.778,6.7795,6.7796,6.7805,6.7817,6.7818,6.7807,6.7829,6.7834,6.7862,6.7879,6.7849,6.7851,6.7939,6.794,6.7942,6.7961,0,0,0,0,0,0,6.7726,6.7734,6.7746,6.7763,6.7771,6.7813,6.7796,6.7798,6.7809,6.7808,6.7824,6.7826,6.7829,6.7859,6.7865,6.7882,6.7853,6.7937,6.7939,6.7941,6.7959,6.7963,6.7967,0,0,0,0,0,6.7723,6.7749,6.7747,6.7753,6.7787,6.7814,6.7818,6.7821,6.7811,6.7824,6.7832,6.7825,6.7877,6.7862,6.7868,6.7886,6.7936,6.7939,6.7941,6.7957,6.7962,6.7967,0,0,0,0,0,0,6.7731,6.7751,6.7749,6.7781,6.7796,6.7812,6.7828,6.7826,6.7843,6.7841,6.7843,6.7847,6.7877,6.7884,6.7868,6.7921,6.7905,6.7909,6.7915,6.792,6.7924,6.7922,6.7854,0,0,0,0,0,6.7737,6.7758,6.7773,6.78,6.7808,6.7817,6.7829,6.783,6.7845,6.7851,6.7861,6.7875,6.7895,6.7908,6.7926,6.796,6.7964,6.7976,6.798,6.7983,6.7986,6.8007,6.8013,6.7951,6.7951,6.7951,0,0,6.7748,6.7762,6.7774,6.7802,6.7814,6.7836,6.7822,6.7845,6.7861,6.7854,6.7883,6.7891,6.7907,6.794,6.7954,6.7947,6.8005,6.7986,6.7989,6.799,6.8011,6.8017,6.8022,6.7953,6.7953,6.7952,0,0,6.7781,6.7792,6.7817,6.7831,6.7849,6.7856,6.7862,6.788,6.7885,6.7915,6.7911,6.793,6.7963,6.7976,6.7986,6.8028,6.8024,6.8034,6.8054,6.8075,6.808,6.8084,6.8101,6.8106,6.8037,6.8037,6.8037,0,6.7792,6.7825,6.783,6.7855,6.7868,6.7865,6.7891,6.7903,6.7926,6.7935,6.7927,6.7971,6.7981,6.8018,6.8028,6.8036,6.8044,6.8032,6.8079,6.8083,6.8087,6.8103,6.8109,6.8038,6.8038,6.8038,6.8038,0,6.784,6.7863,6.7881,6.7906,6.7921,6.7946,6.7955,6.797,6.7971,6.7978,6.8009,6.8023,6.8045,6.8054,6.8054,6.8091,6.8086,6.8078,6.8062,6.8094,6.8109,6.8115,6.804,6.804,6.8039,6.8039,0,0,6.7876,6.7907,6.7913,6.7926,6.7948,6.7966,6.7992,6.8016,6.8029,6.8046,6.8068,6.8098,6.8092,6.8104,6.8106,6.8124,6.8158,6.8114,6.8114,6.8123,6.8203,6.821,6.8216,6.8156,6.8157,6.8158,6.8202,0,6.7912,6.7958,6.7965,6.8006,6.8028,6.8028,6.805,6.8066,6.8075,6.8095,6.8104,6.8126,6.8115,6.8123,6.8141,6.815,6.8175,6.8147,6.8177,6.8178,6.8174,6.8224,6.823,6.8271,6.8208,6.8209,6.8209,0,6.7959,6.798,6.8024,6.8047,6.8056,6.8076,6.8101,6.812,6.8139,6.8144,6.816,6.816,6.8187,6.8171,6.8209,6.819,6.8203,6.821,6.8212,6.8215,6.8196,6.823,6.8284,6.8291,6.8218,6.8218,6.8217,0,6.7984,6.8023,6.8055,6.8066,6.8092,6.8107,6.8118,6.8137,6.8152,6.8172,6.8182,6.8205,6.8218,6.8236,6.8243,6.823,6.8281,6.8265,6.8287,6.8287,6.8298,6.8297,6.8356,6.8304,6.8304,6.8304,6.8304,0,6.8023,6.805,6.8067,6.8087,6.8118,6.8126,6.8156,6.8167,6.8184,6.8206,6.8206,6.8227,6.8235,6.8257,6.8262,6.8294,6.83,6.8305,6.8306,6.8306,6.8305,6.8314,6.8312,6.8306,6.8305,6.8305,6.8305,0,6.8055,6.8067,6.8103,6.8127,6.8133,6.8155,6.8175,6.8195,6.8204,6.8232,6.8239,6.8254,6.828,6.8289,6.832,6.8324,6.8362,6.836,6.8356,6.8357,6.8379,6.8378,6.8447,6.8457,6.8397,6.8398,6.8398,0,6.808,6.8102,6.8129,6.8145,6.8158,6.8183,6.8199,6.8208,6.8225,6.825,6.8267,6.8294,6.8316,6.8358,6.8371,6.8396,6.8395,6.8418,6.8399,6.8399,6.8398,6.8397,6.84,6.8422,6.8422,6.8423,6.8423,0,6.8124,6.813,6.8154,6.8181,6.8201,6.8223,6.8243,6.8256,6.8268,6.8287,6.8315,6.8333,6.8367,6.8394,6.8419,6.8431,6.843,6.8429,6.8436,6.8436,6.8434,6.8437,6.8367,6.8428,6.8427,6.8427,6.8427,6.8426,6.8154,6.8175,6.8198,6.8226,6.8243,6.8263,6.8284,6.8297,6.8321,6.8351,6.8354,6.8385,6.8406,6.8441,6.8454,6.8479,6.8472,6.8481,6.8484,6.8487,6.8489,6.8429,6.8483,6.8483,6.8483,6.8483,6.8483,0,6.82,6.8216,6.8241,6.8272,6.8294,6.8293,6.8316,6.8335,6.8363,6.8383,6.8406,6.8439,6.8466,6.8483,6.851,6.8526,6.8527,6.8533,6.8533,6.8536,6.8492,6.8485,6.8533,6.8533,6.8533,6.8533,6.8533,6.8533,6.8226,6.8261,6.827,6.8315,6.833,6.8362,6.8376,6.8395,6.8412,6.845,6.8474,6.8485,6.8504,6.8533,6.8559,6.8563,6.8573,6.8581,6.8584,6.8544,6.8538,6.8534,6.8526,6.8583,6.8583,6.8626,6.8627,6.8627]}]]